When you browse on this site, cookies collect data to enhance your experience and personalize the content and advertising you see.
Visit our Privacy Policy to learn more. By continuing to use the site, you agree to this use of cookies and data.
  • In United Kingdom
  • List of Countries
  • For 7 days
  • Water Temperature
  • Satellite Maps
  • Weather Map
  • Weather Widgets
  • user-avatar
    Login

    Hourly Weather Vasyl'kivs'ke

    Today, 25 April, Thursday

    Time Temperature Precipitation Wind Pressure Humidity
    00:00 +14°C° 0 mm 2 mps 757 mmHg 48%
    01:00 +13°C° 0 mm 2 mps 757 mmHg 50%
    02:00 +13°C° 0 mm 2 mps 757 mmHg 51%
    03:00 +13°C° 0 mm 2 mps 757 mmHg 54%
    04:00 +12°C° 0 mm 2 mps 757 mmHg 56%
    05:00 +12°C° 0 mm 2 mps 757 mmHg 59%
    06:00 +14°C° 0 mm 2 mps 757 mmHg 55%
    07:00 +16°C° 0 mm 2 mps 757 mmHg 51%
    08:00 +18°C° 0 mm 2 mps 757 mmHg 48%
    09:00 +20°C° 0 mm 2 mps 757 mmHg 44%
    10:00 +22°C° 0 mm 1 mps 757 mmHg 40%
    11:00 +24°C° 0 mm 1 mps 757 mmHg 36%
    12:00 +24°C° 0 mm 1 mps 757 mmHg 34%
    13:00 +25°C° 0 mm 1 mps 756 mmHg 33%
    14:00 +23°C° 0 mm 0 mps 756 mmHg 32%
    15:00 +24°C° 0 mm 1 mps 756 mmHg 35%
    16:00 +24°C° 0 mm 1 mps 756 mmHg 39%
    17:00 +23°C° 0 mm 1 mps 755 mmHg 42%
    18:00 +22°C° 0 mm 1 mps 755 mmHg 43%
    19:00 +20°C° 0 mm 2 mps 755 mmHg 43%
    20:00 +20°C° 0 mm 2 mps 755 mmHg 44%
    21:00 +19°C° 0 mm 2 mps 755 mmHg 46%
    22:00 +18°C° 0 mm 2 mps 755 mmHg 48%
    23:00 +17°C° 0 mm 2 mps 755 mmHg 50%

    Tomorrow, 26 April, Friday

    Time Temperature Precipitation Wind Pressure Humidity
    00:00 +16°C° 0 mm 2 mps 755 mmHg 52%
    01:00 +16°C° 0 mm 2 mps 755 mmHg 54%
    02:00 +15°C° 0 mm 2 mps 755 mmHg 57%
    03:00 +15°C° 0 mm 2 mps 754 mmHg 58%
    04:00 +14°C° 0 mm 2 mps 754 mmHg 60%
    05:00 +14°C° 0 mm 2 mps 754 mmHg 62%
    06:00 +16°C° 0 mm 2 mps 754 mmHg 58%
    07:00 +19°C° 0 mm 1 mps 754 mmHg 53%
    08:00 +21°C° 0 mm 1 mps 754 mmHg 49%
    09:00 +22°C° 0 mm 1 mps 754 mmHg 46%
    10:00 +23°C° 0 mm 1 mps 754 mmHg 43%
    11:00 +24°C° 0 mm 1 mps 754 mmHg 40%
    12:00 +24°C° 0 mm 1 mps 754 mmHg 40%
    13:00 +24°C° 0 mm 1 mps 753 mmHg 40%
    14:00 +24°C° 0 mm 1 mps 753 mmHg 40%
    15:00 +24°C° 0 mm 1 mps 753 mmHg 41%
    16:00 +23°C° 0 mm 1 mps 752 mmHg 43%
    17:00 +23°C° 0 mm 1 mps 752 mmHg 45%
    18:00 +22°C° 0.2 mm 1 mps 752 mmHg 48%
    19:00 +20°C° 0.2 mm 1 mps 752 mmHg 52%
    20:00 +19°C° 0.2 mm 1 mps 752 mmHg 56%
    21:00 +18°C° 0.6 mm 1 mps 752 mmHg 59%
    22:00 +18°C° 0.6 mm 1 mps 752 mmHg 61%
    23:00 +16°C° 0.6 mm 1 mps 752 mmHg 64%

    Day after tomorrow, 27 April, Saturday

    Time Temperature Precipitation Wind Pressure Humidity
    00:00 +16°C° 0.2 mm 1 mps 752 mmHg 65%
    01:00 +16°C° 0.2 mm 1 mps 752 mmHg 66%
    02:00 +15°C° 0.2 mm 1 mps 752 mmHg 66%
    03:00 +15°C° 0.1 mm 1 mps 751 mmHg 67%
    04:00 +14°C° 0.1 mm 1 mps 751 mmHg 68%
    05:00 +14°C° 0.1 mm 1 mps 751 mmHg 69%
    06:00 +16°C° 0 mm 1 mps 751 mmHg 64%
    07:00 +18°C° 0 mm 1 mps 751 mmHg 58%
    08:00 +20°C° 0 mm 1 mps 751 mmHg 53%
    09:00 +21°C° 0 mm 1 mps 751 mmHg 49%
    10:00 +22°C° 0 mm 1 mps 751 mmHg 45%
    11:00 +23°C° 0 mm 2 mps 751 mmHg 41%
    12:00 +24°C° 0 mm 2 mps 750 mmHg 40%
    13:00 +24°C° 0 mm 2 mps 750 mmHg 39%
    14:00 +24°C° 0 mm 2 mps 750 mmHg 38%
    15:00 +23°C° 0 mm 2 mps 749 mmHg 42%
    16:00 +23°C° 0 mm 2 mps 749 mmHg 45%
    17:00 +21°C° 0 mm 2 mps 749 mmHg 49%
    18:00 +20°C° 0 mm 2 mps 748 mmHg 51%
    19:00 +19°C° 0 mm 2 mps 748 mmHg 53%
    20:00 +18°C° 0 mm 3 mps 748 mmHg 55%
    21:00 +17°C° 0 mm 3 mps 748 mmHg 57%
    22:00 +16°C° 0 mm 3 mps 748 mmHg 59%
    23:00 +14°C° 0 mm 3 mps 748 mmHg 60%

    28 April, Sunday

    Time Temperature Precipitation Wind Pressure Humidity
    00:00 +13°C° 0 mm 3 mps 748 mmHg 61%
    01:00 +13°C° 0 mm 3 mps 748 mmHg 62%
    02:00 +13°C° 0 mm 2 mps 748 mmHg 63%
    03:00 +13°C° 0 mm 2 mps 748 mmHg 65%
    04:00 +13°C° 0 mm 2 mps 747 mmHg 67%
    05:00 +13°C° 0 mm 1 mps 747 mmHg 68%
    06:00 +15°C° 0 mm 1 mps 747 mmHg 63%
    07:00 +16°C° 0 mm 1 mps 747 mmHg 57%
    08:00 +19°C° 0 mm 1 mps 747 mmHg 51%
    09:00 +20°C° 0 mm 2 mps 747 mmHg 48%
    10:00 +21°C° 0 mm 2 mps 747 mmHg 45%
    11:00 +22°C° 0 mm 3 mps 747 mmHg 42%
    12:00 +24°C° 0 mm 3 mps 747 mmHg 40%
    13:00 +24°C° 0 mm 3 mps 746 mmHg 38%
    14:00 +25°C° 0 mm 4 mps 746 mmHg 36%
    15:00 +24°C° 0 mm 3 mps 746 mmHg 38%
    16:00 +24°C° 0 mm 3 mps 746 mmHg 39%
    17:00 +24°C° 0 mm 3 mps 745 mmHg 41%
    18:00 +21°C° 0 mm 3 mps 746 mmHg 45%
    19:00 +19°C° 0 mm 3 mps 746 mmHg 49%
    20:00 +17°C° 0 mm 2 mps 746 mmHg 53%
    21:00 +17°C° 0 mm 3 mps 746 mmHg 55%
    22:00 +16°C° 0 mm 3 mps 746 mmHg 56%
    23:00 +14°C° 0 mm 3 mps 746 mmHg 58%

    29 April, Monday

    Time Temperature Precipitation Wind Pressure Humidity
    00:00 +13°C° 0 mm 3 mps 746 mmHg 62%
    01:00 +13°C° 0 mm 3 mps 746 mmHg 66%
    02:00 +13°C° 0 mm 3 mps 745 mmHg 70%
    03:00 +14°C° 0 mm 2 mps 746 mmHg 71%
    04:00 +14°C° 0 mm 2 mps 746 mmHg 72%
    05:00 +14°C° 0 mm 2 mps 746 mmHg 73%
    06:00 +15°C° 0 mm 2 mps 746 mmHg 68%
    07:00 +16°C° 0 mm 2 mps 746 mmHg 63%
    08:00 +18°C° 0 mm 2 mps 746 mmHg 59%
    09:00 +20°C° 0 mm 1 mps 747 mmHg 55%
    10:00 +21°C° 0 mm 1 mps 747 mmHg 52%
    11:00 +23°C° 0 mm 1 mps 747 mmHg 48%
    12:00 +23°C° 0.3 mm 1 mps 746 mmHg 46%
    13:00 +23°C° 0.3 mm 1 mps 746 mmHg 44%
    14:00 +24°C° 0.3 mm 2 mps 746 mmHg 42%
    15:00 +23°C° 0.6 mm 2 mps 746 mmHg 47%
    16:00 +21°C° 0.6 mm 3 mps 746 mmHg 51%
    17:00 +20°C° 0.6 mm 4 mps 746 mmHg 55%
    18:00 +17°C° 0.1 mm 5 mps 746 mmHg 64%
    19:00 +15°C° 0.1 mm 6 mps 746 mmHg 73%
    20:00 +12°C° 0.1 mm 7 mps 747 mmHg 82%
    21:00 +11°C° 0 mm 7 mps 747 mmHg 82%
    22:00 +11°C° 0 mm 6 mps 747 mmHg 81%
    23:00 +11°C° 0 mm 6 mps 747 mmHg 80%

    30 April, Tuesday

    Time Temperature Precipitation Wind Pressure Humidity
    00:00 +11°C° 0 mm 6 mps 747 mmHg 79%
    01:00 +12°C° 0 mm 5 mps 747 mmHg 78%
    02:00 +12°C° 0 mm 5 mps 747 mmHg 77%
    03:00 +10°C° 0 mm 5 mps 747 mmHg 79%
    04:00 +9°C° 0 mm 5 mps 747 mmHg 81%
    05:00 +9°C° 0 mm 5 mps 747 mmHg 83%
    06:00 +9°C° 0 mm 5 mps 747 mmHg 80%
    07:00 +10°C° 0 mm 5 mps 747 mmHg 76%
    08:00 +11°C° 0 mm 6 mps 747 mmHg 73%
    09:00 +13°C° 0 mm 5 mps 747 mmHg 69%
    10:00 +15°C° 0 mm 5 mps 747 mmHg 64%
    11:00 +17°C° 0 mm 5 mps 747 mmHg 60%
    12:00 +17°C° 0 mm 5 mps 747 mmHg 59%
    13:00 +17°C° 0 mm 5 mps 747 mmHg 58%
    14:00 +17°C° 0 mm 5 mps 746 mmHg 57%
    15:00 +17°C° 0 mm 6 mps 746 mmHg 60%
    16:00 +16°C° 0 mm 6 mps 746 mmHg 62%
    17:00 +16°C° 0 mm 7 mps 746 mmHg 64%
    18:00 +14°C° 0 mm 7 mps 746 mmHg 66%
    19:00 +12°C° 0 mm 7 mps 746 mmHg 68%
    20:00 +11°C° 0 mm 8 mps 746 mmHg 70%
    21:00 +10°C° 0.1 mm 7 mps 746 mmHg 71%
    22:00 +9°C° 0.1 mm 7 mps 746 mmHg 72%
    23:00 +9°C° 0.1 mm 7 mps 746 mmHg 72%
    Show more